This is the latest recevied weather packets stored in our database for station/object ZL3GL-4. If no packets are shown the sender has not sent any weather packets the latest 10 day(s).
| Time | Temp. | Humidity | Pressure | Rain* | Wind** | Luminosity | Snow |
|---|---|---|---|---|---|---|---|
| 1777956084 | 9.44° C | 98% | 1025.5 hPa | 0 mm | 1.79 m/s, 328° | - | - |
| 1777955238 | 9.44° C | 98% | 1025.5 hPa | 0 mm | 0.45 m/s, 346° | - | - |
| 1777954397 | 9.44° C | 97% | 1025.6 hPa | 0 mm | 1.79 m/s, 359° | - | - |
| 1777953551 | 9.44° C | 96% | 1025.7 hPa | 0 mm | 1.34 m/s, 340° | - | - |
| 1777951863 | 10° C | 95% | 1025.8 hPa | 0 mm | 1.79 m/s, 294° | - | - |
| 1777951024 | 10° C | 96% | 1026 hPa | 0 mm | 0.89 m/s, 90° | - | - |
| 1777950181 | 10° C | 95% | 1026 hPa | 0 mm | 1.34 m/s, 308° | - | - |
| 1777949334 | 10.56° C | 94% | 1026 hPa | 0 mm | 2.24 m/s, 18° | - | - |
| 1777948489 | 10.56° C | 92% | 1026.1 hPa | 0 mm | 1.79 m/s, 68° | - | - |
| 1777947646 | 11.11° C | 90% | 1026.2 hPa | 0 mm | 2.24 m/s, 329° | - | - |
| 1777946800 | 11.11° C | 91% | 1026.3 hPa | 0 mm | 2.24 m/s, 346° | - | - |
| 1777945962 | 11.11° C | 94% | 1026.4 hPa | 0 mm | 1.34 m/s, 80° | - | - |
| 1777945117 | 10.56° C | 94% | 1026.6 hPa | 0 mm | 0.89 m/s, 342° | - | - |
| 1777944270 | 10.56° C | 93% | 1026.8 hPa | 0 mm | 1.34 m/s, 77° | - | - |
| 1777943434 | 10.56° C | 95% | 1027.1 hPa | 0 mm | 1.34 m/s, 86° | - | - |
| 1777942583 | 10.56° C | 95% | 1027.2 hPa | 0 mm | 1.79 m/s, 53° | - | - |
| 1777941740 | 10.56° C | 96% | 1027.5 hPa | 0 mm | 0.89 m/s, 13° | - | - |
| 1777940896 | 10° C | 96% | 1027.9 hPa | 0 mm | 1.79 m/s, 312° | - | - |
| 1777940053 | 10° C | 97% | 1028.1 hPa | 0 mm | 0.89 m/s, 45° | - | - |
| 1777939209 | 10° C | 97% | 1028.4 hPa | 0 mm | 0.45 m/s, 28° | - | - |
| 1777938364 | 10° C | 98% | 1028.7 hPa | 0 mm | 0.45 m/s, 121° | - | - |
| 1777937520 | 10° C | 99% | 1028.7 hPa | 0 mm | 1.34 m/s, 354° | - | - |
| 1777936676 | 10° C | 100% | 1029 hPa | 0 mm | 1.79 m/s, 271° | - | - |
| 1777935833 | 10° C | 100% | 1029 hPa | 0 mm | 2.24 m/s, 287° | - | - |
| 1777934988 | 9.44° C | 100% | 1029 hPa | 0 mm | 1.79 m/s, 276° | - | - |
* Rain latest hour (hover to see other rain measurements)
** Current wind speed in m/s (hover to see current wind gust speed)